Location: Newark
(59.4564°N, 26.6917°E)
Time: 03:50:38
(UTC+00:00)

SR - Pass Details

Date: 30 November 2019
Orbit: 573 x 882 km, 66.7° (Epoch: 12 December)

Event Time Altitude Azimuth Distance (km) Brightness Sun altitude
Rises 11:33:17 0° 224° (SW) 3,310 ? 6.8°
Reaches altitude 10° 11:35:39 10° 224° (SW) 2,421 ? 6.6°
Maximum altitude 11:41:18 84° 138° (SE) 873 ? 6.4°
Drops below altitude 10° 11:47:16 10° 51° (NE) 2,548 ? 6.1°
Sets 11:49:48 0° 51° (NE) 3,495 ? 5.9°
